Flag for U.S.A. Weather past 2 weeks in Stroudsburg, Pennsylvania, U.S.A.

Now
60 °F

Overcast.


Feels Like: 60 °F
Forecast: 53 / 79 °F
Wind: 6 mph from South

Location: Pocono Mountains Municipal Airport

Current Time: Aug 30, 2014 at 2:22:49 AM

Latest Report: Aug 30, 2014 at 1:53 AM


Visibility: 10 mi

Pressure: 30.25 "Hg

Humidity: 75%

Dew point: 52 °F

Location of StroudsburgLocation

Historic Weather in Stroudsburg — Graph

°F

Stroudsburg temperature yesterday

Maximum temperature yesterday: 72 °F (at 2:53 PM)
Minimum temperature yesterday: 49 °F (at 6:53 AM)
Average temperature yesterday: 59 °F

Past Weeks' High & Low Weather Summary

 TemperatureHumidityPressure
High83 °F (Aug 27, 2:53 PM)97% (Aug 16, 4:53 AM)30.26 "Hg (Aug 16, 4:53 AM)
Low47 °F (Aug 16, 4:53 AM)44% (Aug 24, 12:53 PM)29.88 "Hg (Aug 18, 4:53 PM)
Average63 °F77%30.05 "Hg
* Reported Aug 15 12:53 AM — Aug 30 12:53 AM, Stroudsburg, Weather by CustomWeather, © 2014

Note: Actual official high and low records may vary slightly from our data, if they occured in-between our weather recording intervals... More about our weather records

Advertising

Stroudsburg weather history for previous 24 hours

 ConditionsComfort  
Time TempWeatherWind HumidityBarometerVisibility
12:53 AM
Aug 30
60 °FOvercast.7 mph78%30.26 "Hg10 mi
11:53 PM
Aug 29
58 °FPassing clouds.7 mph87%30.26 "Hg10 mi
10:53 PM58 °FClear.6 mph84%30.25 "Hg10 mi
9:53 PM55 °FClear.No wind90%30.25 "Hg10 mi
8:53 PM56 °FClear.No wind87%30.24 "Hg10 mi
7:53 PM62 °FSunny.3 mph75%30.22 "Hg10 mi
6:53 PM68 °FSunny.7 mph59%30.21 "Hg10 mi
5:53 PM70 °FSunny.8 mph53%30.20 "Hg10 mi
4:53 PM71 °FSunny.9 mph45%30.19 "Hg10 mi
2:53 PM72 °FSunny.6 mph46%30.20 "Hg10 mi
1:53 PM69 °FSunny.6 mph47%30.21 "Hg10 mi
12:53 PM67 °FSunny.No wind51%30.22 "Hg10 mi
11:53 AM66 °FSunny.No wind50%30.23 "Hg10 mi
10:53 AM66 °FSunny.10 mph54%30.23 "Hg10 mi
9:53 AM62 °FSunny.8 mph62%30.23 "Hg10 mi
8:53 AM59 °FSunny.6 mph75%30.22 "Hg10 mi
7:53 AM53 °FSunny.3 mph83%30.21 "Hg10 mi
6:53 AM49 °FClear.No wind90%30.18 "Hg10 mi
5:53 AM52 °FClear.5 mph80%30.16 "Hg10 mi
4:53 AM50 °FClear.5 mph86%30.14 "Hg10 mi
3:53 AM50 °FClear.5 mph86%30.14 "Hg10 mi
2:53 AM51 °FClear.7 mph83%30.13 "Hg10 mi
Weather by CustomWeather, © 2014

See weather overviewHow to use our weather pages